Home > Weather > Pomona > Past weeks

Flag for USA Weather for the Past 2 Weeks in Pomona, California, USA

Now
56 °F

Light rain. Mostly cloudy.


Feels Like: 54 °F
Forecast: 52 / 66 °F
Wind: 7 mph from West

Location: Chino Airport

Current Time: May 6, 2016 at 3:09:39 AM

Latest Report: May 6, 2016 at 1:53 AM


Visibility: 8 mi

Pressure: 29.85 "Hg

Humidity: 90%

Dew Point: 53 °F

Location of PomonaLocation

Historic Weather in Pomona — Graph

°F

Pomona Temperature Yesterday

Maximum temperature yesterday: 70 °F (at 2:53 PM)
Minimum temperature yesterday: 57 °F (at 11:53 PM)
Average temperature yesterday: 63 °F

High & Low Weather Summary for the Past Weeks

 TemperatureHumidityPressure
High92 °F (May 3, 12:53 PM)93% (Apr 26, 1:53 AM)30.04 "Hg (Apr 26, 1:53 AM)
Low46 °F (Apr 26, 4:53 AM)11% (Apr 21, 1:53 PM)29.74 "Hg (Apr 27, 11:53 PM)
Average64 °F59%29.91 "Hg
* Reported Apr 21 1:53 AM — May 6 1:53 AM, Pomona, Weather by CustomWeather, © 2016

Note: Actual official high and low records may vary slightly from our data, if they occured in-between our weather recording intervals... More about our weather records

Advertising

Pomona Weather History for the Previous 24 Hours

Scroll right to see more
 ConditionsComfort  
Time TempWeatherWind HumidityBarometerVisibility
1:53 AM
Fri, May 6
56 °FLight rain. Mostly cloudy.7 mph90%29.85 "Hg8 mi
12:53 AM56 °FPartly cloudy.3 mph87%29.88 "Hg10 mi
11:53 PM
Thu, May 5
57 °FOvercast.6 mph83%29.89 "Hg10 mi
10:53 PM58 °FLight rain. Mostly cloudy.10 mph84%29.89 "Hg5 mi
9:53 PM60 °FOvercast.8 mph69%29.88 "Hg10 mi
8:53 PM61 °FOvercast.10 mph67%29.87 "Hg9 mi
7:53 PM62 °FMostly cloudy.12 mph58%29.85 "Hg10 mi
6:53 PM63 °FPartly sunny.10 mph58%29.85 "Hg10 mi
5:53 PM65 °FBroken clouds.14 mph47%29.86 "Hg10 mi
4:53 PM67 °FPartly sunny.15 mph45%29.87 "Hg10 mi
3:53 PM69 °FPartly sunny.15 mph42%29.88 "Hg10 mi
2:53 PM70 °FPartly sunny.14 mph47%29.91 "Hg10 mi
1:53 PM69 °FMostly cloudy.14 mph47%29.91 "Hg10 mi
12:53 PM67 °FMostly cloudy.10 mph53%29.91 "Hg10 mi
11:53 AM68 °FPartly sunny.7 mph47%29.92 "Hg10 mi
10:53 AM66 °FMostly cloudy.8 mph50%29.91 "Hg10 mi
9:53 AM65 °FMostly cloudy.No wind54%29.91 "Hg10 mi
8:53 AM62 °FMore clouds than sun.No wind62%29.92 "Hg10 mi
7:53 AM61 °FOvercast.3 mph67%29.92 "Hg10 mi
6:53 AM59 °FOvercast.7 mph75%29.91 "Hg10 mi
5:53 AM59 °FMostly cloudy.8 mph78%29.91 "Hg9 mi
4:53 AM58 °FOvercast.3 mph81%29.90 "Hg8 mi
3:53 AM59 °FOvercast.9 mph78%29.90 "Hg9 mi
Weather by CustomWeather, © 2016

See weather overviewHow to use our weather pages